Location: Gwatt
(46.7204°N, 7.6223°E)
Time: 18:50:36
(UTC+00:00)

Transit 2A - Pass Details

Date: 25 January 2021
Orbit: 600 x 958 km, 66.7° (Epoch: 26 February)

Event Time Altitude Azimuth Distance (km) Brightness Sun altitude
Rises 10:35:13 0° 331° (NNW) 3,061 8.5 22.7°
Reaches altitude 10° 10:37:53 10° 342° (NNW) 2,089 7.8 22.9°
Maximum altitude 10:42:00 30° 44° (NE) 1,141 6.8 23.1°
Drops below altitude 10° 10:45:53 10° 106° (ESE) 1,965 8.6 23.2°
Sets 10:48:18 0° 117° (ESE) 2,849 9.6 23.3°
